| time (UTC) | temp C | wind direction | speed KPH | gust KPH | rain 1hr cm | rain 24hr cm | rain mn cm | humidity % | barometer mb |
| 20260510162004 | 20 | 241 | 4.8 | 12.9 | 0.00 | 0.00 | 0.00 | 64 | 1017.4 |
| 20260510161503 | 20 | 231 | 4.8 | 19.3 | 0.00 | 0.00 | 0.00 | 64 | 1017.8 |
| 20260510161004 | 21 | 272 | 4.8 | 12.9 | 0.00 | 0.00 | 0.00 | 61 | 1017.6 |
| 20260510160504 | 20 | 261 | 6.4 | 20.9 | 0.00 | 0.00 | 0.00 | 65 | 1017.5 |
| 20260510160003 | 20 | 230 | 9.7 | 20.9 | 0.00 | 0.00 | 0.00 | 62 | 1017.8 |
| 20260510155503 | 20 | 210 | 6.4 | 19.3 | 0.00 | 0.00 | 0.00 | 65 | 1017.9 |
| 20260510155003 | 20 | 235 | 8.0 | 19.3 | 0.00 | 0.00 | 0.00 | 65 | 1018.0 |
| 20260510154504 | 20 | 229 | 6.4 | 14.5 | 0.00 | 0.00 | 0.00 | 65 | 1018.1 |
| 20260510154004 | 20 | 228 | 6.4 | 25.7 | 0.00 | 0.00 | 0.00 | 63 | 1018.0 |
| 20260510153504 | 20 | 192 | 8.0 | 20.9 | 0.00 | 0.00 | 0.00 | 61 | 1018.0 |
| 20260510153004 | 20 | 216 | 9.7 | 22.5 | 0.00 | 0.00 | 0.00 | 62 | 1018.0 |
| 20260510152504 | 20 | 208 | 8.0 | 14.5 | 0.00 | 0.00 | 0.00 | 62 | 1018.0 |
| 20260510152004 | 20 | 237 | 8.0 | 19.3 | 0.00 | 0.00 | 0.00 | 62 | 1017.9 |
| 20260510151504 | 21 | 214 | 8.0 | 16.1 | 0.00 | 0.00 | 0.00 | 63 | 1017.8 |
| 20260510150505 | 21 | 219 | 6.4 | 16.1 | 0.00 | 0.00 | 0.00 | 61 | 1017.7 |
| 20260510150003 | 21 | 235 | 4.8 | 14.5 | 0.00 | 0.00 | 0.00 | 60 | 1017.8 |
| 20260510145503 | 21 | 221 | 9.7 | 20.9 | 0.00 | 0.00 | 0.00 | 61 | 1017.9 |
| 20260510145004 | 21 | 241 | 6.4 | 16.1 | 0.00 | 0.00 | 0.00 | 62 | 1017.9 |
| 20260510144504 | 20 | 217 | 8.0 | 19.3 | 0.00 | 0.00 | 0.00 | 62 | 1018.3 |
| 20260510144004 | 20 | 204 | 4.8 | 16.1 | 0.00 | 0.00 | 0.00 | 62 | 1018.2 |
| 20260510143504 | 20 | 210 | 6.4 | 16.1 | 0.00 | 0.00 | 0.00 | 62 | 1018.2 |
| 20260510143004 | 20 | 174 | 8.0 | 14.5 | 0.00 | 0.00 | 0.00 | 61 | 1018.2 |
| 20260510142504 | 21 | 233 | 6.4 | 14.5 | 0.00 | 0.00 | 0.00 | 61 | 1018.3 |
| 20260510141503 | 20 | 276 | 4.8 | 22.5 | 0.00 | 0.00 | 0.00 | 62 | 1018.3 |
| 20260510141004 | 20 | 221 | 9.7 | 19.3 | 0.00 | 0.00 | 0.00 | 61 | 1018.5 |
| 20260510140504 | 20 | 331 | 9.7 | 19.3 | 0.00 | 0.00 | 0.00 | 62 | 1018.5 |
| 20260510135505 | 20 | 220 | 8.0 | 24.1 | 0.00 | 0.00 | 0.00 | 61 | 1018.6 |
| 20260510134005 | 20 | 245 | 8.0 | 20.9 | 0.00 | 0.00 | 0.00 | 61 | 1018.7 |
| 20260510133003 | 20 | 317 | 4.8 | 16.1 | 0.00 | 0.00 | 0.00 | 61 | 1018.7 |
| 20260510132504 | 20 | 194 | 8.0 | 16.1 | 0.00 | 0.00 | 0.00 | 61 | 1018.7 |
| 20260510132003 | 20 | 49 | 4.8 | 12.9 | 0.00 | 0.00 | 0.00 | 62 | 1018.8 |
| 20260510131503 | 20 | 269 | 3.2 | 12.9 | 0.00 | 0.00 | 0.00 | 63 | 1018.9 |
| 20260510131004 | 20 | 252 | 4.8 | 16.1 | 0.00 | 0.00 | 0.00 | 64 | 1018.9 |
| 20260510130004 | 20 | 235 | 6.4 | 19.3 | 0.00 | 0.00 | 0.00 | 63 | 1019.1 |
| 20260510125004 | 20 | 232 | 4.8 | 12.9 | 0.00 | 0.00 | 0.00 | 57 | 1019.1 |
| 20260510123508 | 20 | 218 | 4.8 | 11.3 | 0.00 | 0.00 | 0.00 | 52 | 1019.3 |
| 20260510122510 | 20 | 202 | 6.4 | 25.7 | 0.00 | 0.03 | 0.00 | 50 | 1019.5 |
| 20260510122012 | 20 | 259 | 8.0 | 16.1 | 0.00 | 0.03 | 0.00 | 50 | 1019.3 |
| 20260510121504 | 20 | 205 | 8.0 | 24.1 | 0.00 | 0.03 | 0.00 | 49 | 1019.7 |
| 20260510121005 | 20 | 207 | 8.0 | 24.1 | 0.00 | 0.05 | 0.00 | 47 | 1019.5 |
| 20260510120504 | 20 | 246 | 4.8 | 16.1 | 0.00 | 0.08 | 0.00 | 50 | 1019.6 |
| 20260510115504 | 20 | 131 | 4.8 | 19.3 | 0.00 | 0.08 | 0.00 | 50 | 1019.7 |
| 20260510115004 | 20 | 223 | 6.4 | 20.9 | 0.00 | 0.08 | 0.00 | 49 | 1019.6 |
| 20260510114504 | 21 | 229 | 9.7 | 22.5 | 0.00 | 0.10 | 0.00 | 48 | 1019.8 |
| 20260510114004 | 21 | 172 | 4.8 | 19.3 | 0.00 | 0.10 | 0.00 | 47 | 1019.9 |
| 20260510113504 | 21 | 238 | 9.7 | 19.3 | 0.00 | 0.13 | 0.00 | 46 | 1019.8 |
| 20260510113004 | 21 | 232 | 3.2 | 9.7 | 0.00 | 0.15 | 0.00 | 45 | 1019.8 |
| 20260510112503 | 21 | 233 | 6.4 | 19.3 | 0.00 | 0.18 | 0.00 | 46 | 1019.7 |
| 20260510112004 | 20 | 224 | 3.2 | 9.7 | 0.00 | 0.23 | 0.00 | 46 | 1019.9 |
| 20260510111504 | 21 | 224 | 9.7 | 16.1 | 0.00 | 0.28 | 0.00 | 45 | 1019.7 |
| 20260510111004 | 21 | 185 | 8.0 | 14.5 | 0.00 | 0.36 | 0.00 | 43 | 1019.6 |
| 20260510110503 | 21 | 230 | 4.8 | 9.7 | 0.00 | 0.43 | 0.00 | 43 | 1019.7 |
| 20260510110004 | 21 | 338 | 3.2 | 9.7 | 0.00 | 0.48 | 0.00 | 45 | 1020.1 |
| 20260510105504 | 21 | 176 | 3.2 | 12.9 | 0.00 | 0.53 | 0.00 | 46 | 1020.1 |
| 20260510104504 | 20 | 243 | 4.8 | 14.5 | 0.00 | 0.81 | 0.00 | 46 | 1020.3 |
| 20260510104004 | 20 | 230 | 6.4 | 11.3 | 0.00 | 0.89 | 0.00 | 46 | 1020.2 |
| 20260510103503 | 20 | 196 | 8.0 | 14.5 | 0.00 | 0.94 | 0.00 | 48 | 1020.3 |
| 20260510102503 | 20 | 226 | 8.0 | 16.1 | 0.00 | 0.99 | 0.00 | 48 | 1020.5 |
| 20260510102004 | 20 | 234 | 6.4 | 16.1 | 0.00 | 1.04 | 0.00 | 49 | 1020.7 |
| 20260510101504 | 20 | 243 | 4.8 | 12.9 | 0.00 | 1.07 | 0.00 | 48 | 1020.8 |
| 20260510101004 | 20 | 243 | 3.2 | 19.3 | 0.00 | 1.09 | 0.00 | 48 | 1020.7 |
| 20260510100504 | 20 | 207 | 8.0 | 20.9 | 0.00 | 1.14 | 0.00 | 48 | 1021.1 |
| 20260510100003 | 20 | 245 | 8.0 | 14.5 | 0.00 | 1.17 | 0.00 | 48 | 1021.1 |
| 20260510095503 | 20 | 218 | 4.8 | 14.5 | 0.00 | 1.19 | 0.00 | 49 | 1020.9 |
| 20260510095004 | 19 | 279 | 3.2 | 12.9 | 0.00 | 1.22 | 0.00 | 49 | 1020.9 |
| 20260510094505 | 19 | 221 | 8.0 | 16.1 | 0.00 | 1.22 | 0.00 | 49 | 1021.1 |
| 20260510094004 | 19 | 220 | 4.8 | 12.9 | 0.00 | 1.24 | 0.00 | 49 | 1021.0 |
| 20260510093004 | 19 | 207 | 8.0 | 19.3 | 0.00 | 1.27 | 0.00 | 49 | 1021.0 |
| 20260510092504 | 18 | 202 | 6.4 | 14.5 | 0.00 | 1.27 | 0.00 | 49 | 1021.0 |
| 20260510092005 | 18 | 247 | 8.0 | 20.9 | 0.00 | 1.30 | 0.00 | 50 | 1021.1 |
| 20260510091503 | 18 | 224 | 9.7 | 19.3 | 0.00 | 1.30 | 0.00 | 49 | 1021.3 |
| 20260510091004 | 18 | 243 | 6.4 | 25.7 | 0.00 | 1.42 | 0.00 | 50 | 1021.2 |
| 20260510090504 | 18 | 248 | 4.8 | 12.9 | 0.00 | 1.52 | 0.00 | 51 | 1021.4 |
| 20260510090004 | 18 | 262 | 8.0 | 20.9 | 0.00 | 1.52 | 0.00 | 49 | 1021.1 |
| 20260510083004 | 18 | 261 | 6.4 | 11.3 | 0.00 | 1.98 | 0.00 | 53 | 1021.5 |
| 20260510082004 | 18 | 219 | 1.6 | 4.8 | 0.00 | 2.08 | 0.00 | 54 | 1021.7 |
| 20260510081503 | 18 | 197 | 1.6 | 4.8 | 0.00 | 2.21 | 0.00 | 57 | 1021.5 |
| 20260510081003 | 17 | 225 | 1.6 | 4.8 | 0.00 | 2.24 | 0.00 | 61 | 1021.5 |
| 20260510080504 | 17 | 228 | 3.2 | 4.8 | 0.00 | 2.31 | 0.00 | 60 | 1021.5 |
| 20260510080004 | 17 | 120 | 1.6 | 4.8 | 0.00 | 2.44 | 0.00 | 60 | 1021.7 |
| 20260510075504 | 17 | 140 | 0.0 | 1.6 | 0.00 | 2.59 | 0.00 | 63 | 1021.6 |
| 20260510075003 | 17 | 123 | 1.6 | 3.2 | 0.00 | 2.64 | 0.00 | 61 | 1021.8 |
| 20260510074504 | 17 | 160 | 1.6 | 1.6 | 0.00 | 2.69 | 0.00 | 62 | 1021.9 |
| 20260510074005 | 17 | 225 | 0.0 | 1.6 | 0.00 | 2.74 | 0.00 | 64 | 1022.0 |
| 20260510073503 | 17 | 225 | 0.0 | 1.6 | 0.00 | 2.79 | 0.00 | 61 | 1021.8 |
| 20260510072504 | 16 | 225 | 1.6 | 3.2 | 0.00 | 2.84 | 0.00 | 70 | 1022.3 |
| 20260510072003 | 16 | 129 | 0.0 | 3.2 | 0.00 | 2.87 | 0.00 | 71 | 1022.1 |
| 20260510071504 | 16 | 133 | 1.6 | 3.2 | 0.00 | 2.90 | 0.00 | 70 | 1022.0 |
| 20260510071004 | 16 | 225 | 0.0 | 0.0 | 0.00 | 2.95 | 0.00 | 70 | 1022.2 |
| 20260510070004 | 16 | 225 | 0.0 | 1.6 | 0.00 | 3.02 | 0.00 | 71 | 1022.3 |
| 20260510065504 | 14 | 225 | 0.0 | 1.6 | 0.00 | 3.07 | 0.00 | 77 | 1022.8 |
| 20260510065004 | 14 | 225 | 1.6 | 1.6 | 0.00 | 3.10 | 0.00 | 78 | 1022.9 |
| 20260510064503 | 12 | 225 | 0.0 | 1.6 | 0.00 | 3.10 | 0.00 | 82 | 1023.0 |
| 20260510063504 | 12 | 201 | 1.6 | 4.8 | 0.00 | 3.10 | 0.00 | 82 | 1023.0 |
| 20260510063004 | 12 | 235 | 1.6 | 4.8 | 0.00 | 3.12 | 0.00 | 82 | 1023.1 |
| 20260510062504 | 12 | 242 | 0.0 | 0.0 | 0.00 | 3.12 | 0.00 | 84 | 1023.1 |
| 20260510062004 | 11 | 242 | 0.0 | 0.0 | 0.00 | 3.12 | 0.00 | 84 | 1023.2 |
| 20260510061504 | 11 | 242 | 0.0 | 0.0 | 0.00 | 3.12 | 0.00 | 85 | 1023.3 |
| 20260510061003 | 11 | 242 | 0.0 | 1.6 | 0.00 | 3.12 | 0.00 | 86 | 1023.4 |
| 20260510060504 | 11 | 242 | 0.0 | 0.0 | 0.00 | 3.12 | 0.00 | 87 | 1023.4 |
| 20260510055504 | 10 | 242 | 0.0 | 1.6 | 0.00 | 3.12 | 0.00 | 87 | 1023.5 |
| 20260510054504 | 10 | 242 | 0.0 | 1.6 | 0.00 | 3.12 | 0.00 | 87 | 1023.4 |
| 20260510054004 | 10 | 242 | 0.0 | 1.6 | 0.00 | 3.12 | 0.00 | 87 | 1023.4 |
| 20260510053503 | 10 | 242 | 1.6 | 3.2 | 0.00 | 3.12 | 0.00 | 87 | 1023.5 |
| 20260510053004 | 10 | 242 | 1.6 | 1.6 | 0.00 | 3.12 | 0.00 | 88 | 1023.2 |
| 20260510052504 | 10 | 242 | 1.6 | 3.2 | 0.00 | 3.12 | 0.00 | 88 | 1023.4 |
| 20260510052004 | 10 | 242 | 1.6 | 3.2 | 0.00 | 3.12 | 0.00 | 89 | 1023.5 |
| 20260510051503 | 10 | 242 | 0.0 | 1.6 | 0.00 | 3.12 | 0.00 | 90 | 1023.3 |
| 20260510051003 | 9 | 242 | 0.0 | 3.2 | 0.00 | 3.12 | 0.00 | 90 | 1023.3 |
| 20260510050504 | 9 | 203 | 0.0 | 1.6 | 0.00 | 3.12 | 0.00 | 90 | 1023.4 |
| 20260510050004 | 9 | 203 | 0.0 | 0.0 | 0.00 | 3.12 | 0.00 | 90 | 1023.4 |
| 20260510045504 | 9 | 203 | 0.0 | 0.0 | 0.00 | 3.12 | 0.00 | 90 | 1023.3 |
| 20260510045004 | 9 | 203 | 0.0 | 1.6 | 0.00 | 3.12 | 0.00 | 90 | 1023.6 |
| 20260510044505 | 9 | 215 | 1.6 | 3.2 | 0.00 | 3.12 | 0.00 | 90 | 1023.5 |
| 20260510043504 | 10 | 242 | 0.0 | 0.0 | 0.00 | 3.12 | 0.00 | 90 | 1023.2 |
| 20260510043004 | 10 | 242 | 0.0 | 1.6 | 0.00 | 3.12 | 0.00 | 90 | 1023.2 |
| 20260510042005 | 10 | 242 | 1.6 | 1.6 | 0.00 | 3.12 | 0.00 | 91 | 1023.1 |
| 20260510041504 | 10 | 242 | 0.0 | 0.0 | 0.00 | 3.12 | 0.00 | 91 | 1022.9 |
| 20260510041004 | 9 | 242 | 0.0 | 1.6 | 0.00 | 3.12 | 0.00 | 91 | 1023.0 |
| 20260510040004 | 10 | 242 | 0.0 | 0.0 | 0.00 | 3.12 | 0.00 | 91 | 1023.3 |
| 20260510035504 | 10 | 242 | 0.0 | 0.0 | 0.00 | 3.12 | 0.00 | 91 | 1022.8 |
| 20260510035004 | 10 | 242 | 0.0 | 1.6 | 0.00 | 3.12 | 0.00 | 92 | 1022.8 |
| 20260510034503 | 10 | 242 | 1.6 | 1.6 | 0.00 | 3.12 | 0.00 | 92 | 1022.8 |
| 20260510034003 | 10 | 242 | 0.0 | 1.6 | 0.00 | 3.12 | 0.00 | 92 | 1022.8 |
| 20260510033003 | 10 | 242 | 0.0 | 1.6 | 0.00 | 3.12 | 0.00 | 92 | 1022.9 |
| 20260510032004 | 10 | 242 | 0.0 | 1.6 | 0.00 | 3.12 | 0.00 | 92 | 1022.8 |
| 20260510031503 | 10 | 226 | 3.2 | 3.2 | 0.00 | 3.12 | 0.00 | 92 | 1022.8 |
| 20260510031003 | 10 | 222 | 1.6 | 1.6 | 0.00 | 3.12 | 0.00 | 93 | 1022.8 |
| 20260510030504 | 10 | 222 | 1.6 | 1.6 | 0.00 | 3.12 | 0.00 | 93 | 1022.8 |
| 20260510030004 | 10 | 221 | 0.0 | 1.6 | 0.00 | 3.12 | 0.00 | 93 | 1022.8 |
| 20260510025504 | 10 | 221 | 0.0 | 1.6 | 0.00 | 3.12 | 0.00 | 92 | 1022.8 |
| 20260510025003 | 10 | 222 | 1.6 | 3.2 | 0.00 | 3.12 | 0.00 | 92 | 1022.9 |
| 20260510024504 | 10 | 232 | 1.6 | 3.2 | 0.00 | 3.12 | 0.00 | 92 | 1022.9 |
| 20260510023504 | 10 | 232 | 1.6 | 1.6 | 0.00 | 3.12 | 0.00 | 93 | 1022.8 |
| 20260510023004 | 10 | 232 | 1.6 | 1.6 | 0.00 | 3.12 | 0.00 | 93 | 1023.0 |
| 20260510022504 | 10 | 232 | 0.0 | 1.6 | 0.00 | 3.12 | 0.00 | 93 | 1022.8 |
| 20260510022004 | 10 | 232 | 0.0 | 1.6 | 0.00 | 3.12 | 0.00 | 93 | 1022.7 |
| 20260510021004 | 10 | 241 | 0.0 | 0.0 | 0.00 | 3.12 | 0.00 | 93 | 1022.7 |
| 20260510020503 | 10 | 241 | 0.0 | 0.0 | 0.00 | 3.12 | 0.00 | 92 | 1022.9 |
| 20260510020004 | 10 | 241 | 0.0 | 1.6 | 0.00 | 3.12 | 0.00 | 93 | 1022.7 |
| 20260510015004 | 10 | 241 | 1.6 | 3.2 | 0.00 | 3.12 | 0.00 | 92 | 1022.5 |
| 20260510014504 | 10 | 241 | 1.6 | 3.2 | 0.00 | 3.12 | 0.00 | 92 | 1022.7 |
| 20260510014004 | 10 | 218 | 0.0 | 1.6 | 0.00 | 3.12 | 0.00 | 92 | 1022.5 |
| 20260510013503 | 10 | 217 | 1.6 | 3.2 | 0.00 | 3.12 | 0.00 | 92 | 1022.7 |
| 20260510013005 | 10 | 195 | 0.0 | 4.8 | 0.00 | 3.12 | 0.00 | 92 | 1022.5 |
| 20260510012504 | 11 | 225 | 0.0 | 1.6 | 0.00 | 3.12 | 0.00 | 92 | 1022.5 |
| 20260510012004 | 11 | 226 | 0.0 | 1.6 | 0.00 | 3.12 | 0.00 | 92 | 1022.6 |
| 20260510011504 | 11 | 210 | 1.6 | 3.2 | 0.00 | 3.12 | 0.00 | 92 | 1022.7 |
| 20260510010504 | 11 | 207 | 1.6 | 3.2 | 0.00 | 3.12 | 0.00 | 92 | 1022.6 |
| 20260510010004 | 11 | 220 | 0.0 | 1.6 | 0.00 | 3.12 | 0.00 | 92 | 1022.4 |
| 20260510005504 | 11 | 225 | 0.0 | 1.6 | 0.00 | 3.12 | 0.00 | 92 | 1022.4 |
| 20260510005005 | 11 | 219 | 1.6 | 1.6 | 0.00 | 3.12 | 0.00 | 91 | 1022.8 |
| 20260510004504 | 11 | 213 | 1.6 | 1.6 | 0.00 | 3.12 | 0.00 | 91 | 1022.6 |
| 20260510004004 | 11 | 207 | 0.0 | 0.0 | 0.00 | 3.12 | 0.00 | 91 | 1022.9 |
| 20260510003505 | 11 | 207 | 0.0 | 3.2 | 0.00 | 3.12 | 0.00 | 91 | 1023.0 |
| 20260510003004 | 11 | 218 | 1.6 | 3.2 | 0.00 | 3.12 | 0.00 | 90 | 1022.8 |
| 20260510002504 | 11 | 238 | 0.0 | 1.6 | 0.00 | 3.12 | 0.00 | 90 | 1022.9 |
| 20260510002004 | 11 | 237 | 1.6 | 3.2 | 0.00 | 3.12 | 0.00 | 89 | 1022.9 |
| 20260510001503 | 11 | 267 | 1.6 | 3.2 | 0.00 | 3.12 | 0.00 | 89 | 1023.1 |
| 20260510001004 | 11 | 216 | 0.0 | 1.6 | 0.00 | 3.12 | 0.00 | 89 | 1022.7 |
| 20260510000504 | 12 | 216 | 0.0 | 1.6 | 0.00 | 3.12 | 0.00 | 89 | 1023.0 |
| 20260510000004 | 12 | 215 | 1.6 | 3.2 | 0.00 | 3.12 | 0.00 | 88 | 1023.0 |
| 20260509235504 | 12 | 234 | 1.6 | 3.2 | 0.00 | 3.12 | 0.00 | 88 | 1023.1 |
| 20260509235003 | 12 | 237 | 3.2 | 3.2 | 0.00 | 3.12 | 0.00 | 88 | 1023.1 |
| 20260509234504 | 12 | 239 | 1.6 | 4.8 | 0.00 | 3.12 | 0.00 | 88 | 1023.1 |
| 20260509234003 | 12 | 241 | 3.2 | 8.0 | 0.00 | 3.12 | 0.00 | 88 | 1023.2 |
| 20260509233004 | 12 | 211 | 1.6 | 3.2 | 0.00 | 3.12 | 0.00 | 88 | 1023.1 |
| 20260509232503 | 12 | 196 | 0.0 | 1.6 | 0.00 | 3.12 | 0.00 | 87 | 1023.1 |
| 20260509232004 | 12 | 54 | 1.6 | 1.6 | 0.00 | 3.12 | 0.00 | 87 | 1023.0 |
| 20260509231503 | 12 | 52 | 1.6 | 3.2 | 0.00 | 3.12 | 0.00 | 87 | 1023.2 |
| 20260509231004 | 12 | 4 | 0.0 | 1.6 | 0.00 | 3.12 | 0.00 | 87 | 1023.1 |
| 20260509230504 | 12 | 4 | 1.6 | 4.8 | 0.00 | 3.12 | 0.00 | 86 | 1022.7 |
| 20260509225504 | 13 | 225 | 0.0 | 8.0 | 0.00 | 3.12 | 0.00 | 84 | 1022.7 |
| 20260509224504 | 13 | 234 | 4.8 | 9.7 | 0.00 | 3.12 | 0.00 | 84 | 1022.7 |
| 20260509223504 | 12 | 222 | 1.6 | 3.2 | 0.00 | 3.12 | 0.00 | 88 | 1022.6 |
| 20260509223003 | 12 | 227 | 1.6 | 3.2 | 0.00 | 3.12 | 0.00 | 89 | 1022.7 |
| 20260509222504 | 12 | 56 | 0.0 | 0.0 | 0.00 | 3.12 | 0.00 | 90 | 1022.8 |
| 20260509222005 | 12 | 56 | 0.0 | 0.0 | 0.00 | 3.12 | 0.00 | 89 | 1022.8 |
| 20260509221503 | 12 | 56 | 0.0 | 0.0 | 0.00 | 3.12 | 0.00 | 89 | 1022.8 |
| 20260509220504 | 13 | 56 | 0.0 | 0.0 | 0.00 | 3.12 | 0.00 | 88 | 1022.8 |
| 20260509220004 | 13 | 56 | 0.0 | 0.0 | 0.00 | 3.12 | 0.00 | 88 | 1022.9 |
| 20260509215504 | 13 | 56 | 0.0 | 0.0 | 0.00 | 3.12 | 3.12 | 88 | 1022.7 |
| 20260509215005 | 13 | 56 | 0.0 | 1.6 | 0.00 | 3.12 | 3.12 | 87 | 1022.6 |
| 20260509214504 | 13 | 56 | 0.0 | 1.6 | 0.00 | 3.12 | 3.12 | 87 | 1022.5 |
| 20260509214004 | 13 | 56 | 0.0 | 1.6 | 0.00 | 3.12 | 3.12 | 86 | 1022.4 |
| 20260509213504 | 13 | 56 | 0.0 | 3.2 | 0.00 | 3.12 | 3.12 | 85 | 1022.5 |
| 20260509213004 | 14 | 61 | 1.6 | 3.2 | 0.00 | 3.12 | 3.12 | 85 | 1022.5 |
| 20260509212503 | 14 | 61 | 0.0 | 1.6 | 0.00 | 3.12 | 3.12 | 85 | 1022.6 |
| 20260509212004 | 14 | 61 | 0.0 | 4.8 | 0.00 | 3.12 | 3.12 | 85 | 1022.6 |
| 20260509211503 | 14 | 77 | 3.2 | 4.8 | 0.00 | 3.12 | 3.12 | 85 | 1022.4 |
| 20260509211004 | 14 | 97 | 1.6 | 1.6 | 0.00 | 3.12 | 3.12 | 85 | 1022.6 |
| 20260509210504 | 14 | 98 | 0.0 | 3.2 | 0.00 | 3.12 | 3.12 | 84 | 1022.4 |
| 20260509210004 | 14 | 100 | 0.0 | 1.6 | 0.00 | 3.12 | 3.12 | 84 | 1022.2 |
| 20260509205503 | 14 | 100 | 3.2 | 4.8 | 0.00 | 3.12 | 3.12 | 83 | 1022.2 |
| 20260509204504 | 14 | 245 | 1.6 | 3.2 | 0.00 | 3.12 | 3.12 | 83 | 1021.9 |
| 20260509204004 | 14 | 262 | 1.6 | 8.0 | 0.00 | 3.12 | 3.12 | 82 | 1022.1 |
| 20260509203504 | 14 | 236 | 3.2 | 9.7 | 0.00 | 3.12 | 3.12 | 82 | 1021.9 |
| 20260509203004 | 14 | 243 | 3.2 | 14.5 | 0.00 | 3.12 | 3.12 | 82 | 1021.7 |
| 20260509202504 | 14 | 224 | 6.4 | 11.3 | 0.00 | 3.12 | 3.12 | 82 | 1021.9 |
| 20260509202003 | 14 | 250 | 8.0 | 14.5 | 0.00 | 3.12 | 3.12 | 82 | 1021.6 |
| 20260509201504 | 14 | 244 | 6.4 | 14.5 | 0.00 | 3.12 | 3.12 | 82 | 1021.7 |
| 20260509200504 | 14 | 249 | 6.4 | 14.5 | 0.00 | 3.12 | 3.12 | 83 | 1021.7 |
| 20260509200004 | 14 | 231 | 8.0 | 16.1 | 0.00 | 3.12 | 3.12 | 83 | 1021.4 |
| 20260509195504 | 14 | 240 | 4.8 | 12.9 | 0.00 | 3.12 | 3.12 | 83 | 1021.6 |
| 20260509195004 | 14 | 229 | 4.8 | 14.5 | 0.00 | 3.12 | 3.12 | 83 | 1021.3 |
| 20260509194503 | 14 | 227 | 6.4 | 16.1 | 0.00 | 3.12 | 3.12 | 83 | 1021.3 |
| 20260509194004 | 14 | 252 | 8.0 | 16.1 | 0.00 | 3.12 | 3.12 | 84 | 1021.3 |
| 20260509193504 | 14 | 229 | 1.6 | 8.0 | 0.00 | 3.12 | 3.12 | 85 | 1021.2 |
| 20260509193004 | 14 | 213 | 3.2 | 8.0 | 0.00 | 3.12 | 3.12 | 84 | 1021.0 |
| 20260509192505 | 14 | 226 | 4.8 | 14.5 | 0.00 | 3.12 | 3.12 | 84 | 1021.0 |
| 20260509192004 | 14 | 251 | 9.7 | 14.5 | 0.00 | 3.12 | 3.12 | 84 | 1020.9 |
| 20260509191504 | 14 | 241 | 3.2 | 8.0 | 0.00 | 3.12 | 3.12 | 86 | 1020.9 |
| 20260509191003 | 14 | 248 | 3.2 | 9.7 | 0.00 | 3.12 | 3.12 | 86 | 1020.9 |
| 20260509190004 | 14 | 216 | 4.8 | 11.3 | 0.00 | 3.12 | 3.12 | 85 | 1020.9 |
| 20260509185503 | 14 | 237 | 3.2 | 9.7 | 0.00 | 3.12 | 3.12 | 84 | 1020.6 |
| 20260509184504 | 14 | 229 | 3.2 | 9.7 | 0.00 | 3.12 | 3.12 | 87 | 1020.8 |
| 20260509183504 | 14 | 114 | 3.2 | 11.3 | 0.00 | 3.12 | 3.12 | 87 | 1020.3 |
| 20260509183003 | 15 | 237 | 3.2 | 11.3 | 0.00 | 3.12 | 3.12 | 88 | 1020.1 |
| 20260509182504 | 15 | 89 | 0.0 | 4.8 | 0.00 | 3.12 | 3.12 | 89 | 1020.1 |
| 20260509182004 | 15 | 100 | 1.6 | 4.8 | 0.00 | 3.12 | 3.12 | 89 | 1019.9 |
| 20260509181504 | 15 | 49 | 1.6 | 4.8 | 0.00 | 3.12 | 3.12 | 89 | 1019.9 |
| 20260509180504 | 15 | 32 | 3.2 | 4.8 | 0.00 | 3.12 | 3.12 | 88 | 1019.8 |
| 20260509175004 | 15 | 46 | 3.2 | 8.0 | 0.00 | 3.12 | 3.12 | 86 | 1019.7 |
| 20260509174504 | 15 | 60 | 4.8 | 9.7 | 0.00 | 3.12 | 3.12 | 84 | 1019.5 |
| 20260509174004 | 16 | 351 | 0.0 | 4.8 | 0.00 | 3.12 | 3.12 | 83 | 1019.4 |
| 20260509173504 | 16 | 301 | 1.6 | 8.0 | 0.00 | 3.12 | 3.12 | 81 | 1019.2 |
| 20260509173004 | 16 | 232 | 1.6 | 3.2 | 0.00 | 3.12 | 3.12 | 77 | 1019.4 |
| 20260509172005 | 16 | 47 | 3.2 | 4.8 | 0.00 | 3.12 | 3.12 | 77 | 1019.2 |
| 20260509171503 | 16 | 53 | 1.6 | 4.8 | 0.00 | 3.12 | 3.12 | 77 | 1019.2 |
| 20260509171004 | 16 | 37 | 3.2 | 8.0 | 0.00 | 3.12 | 3.12 | 76 | 1019.2 |
| 20260509170504 | 16 | 40 | 3.2 | 9.7 | 0.00 | 3.12 | 3.12 | 76 | 1019.0 |
| 20260509170004 | 16 | 39 | 4.8 | 9.7 | 0.00 | 3.12 | 3.12 | 76 | 1018.7 |
| 20260509165503 | 17 | 33 | 1.6 | 9.7 | 0.00 | 3.12 | 3.12 | 74 | 1018.7 |
| 20260509164504 | 17 | 1 | 1.6 | 4.8 | 0.00 | 3.12 | 3.12 | 73 | 1018.6 |
| 20260509164004 | 17 | 92 | 1.6 | 3.2 | 0.00 | 3.12 | 3.12 | 72 | 1018.7 |
| 20260509163503 | 17 | 18 | 1.6 | 3.2 | 0.00 | 3.12 | 3.12 | 73 | 1018.7 |